RH
21 26 32 32 31 36 40 36 42 57 69 79 77 43 37 38 37 40 40 41 39 36 29 30 31 31 28 26 25 21 22 24
20 19 25 32 32 32 37 47 46 60 63 65 68 66 41 35 35 36 37 39 41 39 36 29 30 32 34 31 28 27 24 26
24 20 20 26 35 40 34 43 52 57 65 70 70 69 65 56 44 40 39 40 41 40 39 34 31 32 34 33 33 30 30 30
32 27 23 23 26 39 37 32 33 40 50 62 70 74 72 68 60 53 44 38 40 41 40 39 35 33 34 35 35 36 35 35
42 36 33 30 30 31 39 37 33 31 42 52 62 67 67 63 65 57 57 47 39 40 40 41 40 35 34 35 37 37 37 37
48 43 41 41 39 37 34 41 37 31 38 50 55 58 58 66 67 68 59 61 53 41 41 40 41 40 34 34 36 37 38 36
49 51 47 46 48 44 42 42 44 37 38 37 46 54 57 60 65 69 67 66 65 56 43 43 42 42 36 34 35 36 37 38
44 51 50 48 52 53 46 46 44 41 36 35 31 39 52 61 63 69 73 70 71 70 62 45 43 41 39 37 35 36 36 37
49 47 53 50 52 51 54 49 47 48 42 39 35 32 40 54 64 70 70 72 67 69 72 64 52 45 44 41 39 35 39 38
49 54 50 52 53 54 51 50 47 47 50 48 46 38 34 38 58 74 76 74 73 69 72 70 68 63 53 49 48 40 43 42
52 52 54 58 54 52 53 51 48 45 51 53 48 47 40 37 41 60 78 83 81 79 75 74 76 76 71 64 55 51 50 50
55 48 49 51 56 55 52 52 50 49 52 52 53 48 48 41 35 43 61 80 88 87 84 79 77 78 77 71 68 60 56 53
47 54 49 45 46 49 52 51 47 46 48 49 43 36 48 50 43 38 44 59 81 88 92 91 84 80 80 80 71 66 61 57
49 52 52 47 45 47 50 52 53 54 49 44 39 36 44 52 56 47 42 44 53 72 90 92 92 89 81 77 73 70 68 64
55 52 53 49 49 46 43 45 46 50 52 55 48 44 43 46 48 53 49 43 41 48 57 77 87 94 90 81 78 73 73 72
62 63 65 60 52 46 43 44 44 47 49 50 53 53 49 46 47 49 55 51 45 42 42 59 83 83 93 97 92 77 76 78
69 73 72 74 72 61 52 48 47 46 46 48 57 56 53 53 47 52 57 55 53 51 49 45 52 59 78 84 93 87 84 81
71 75 76 78 77 71 62 58 54 51 49 46 53 62 59 56 58 52 50 54 59 60 58 56 54 49 56 53 74 88 95 88
67 69 76 78 79 74 63 57 53 56 58 52 52 65 76 69 58 59 56 54 56 61 59 61 62 60 58 65 71 89 98 98